Presure
263 265 260 252 248 240 243 248 240 254 247 232 238 231 243 237 227 241 233 237 234 235 231 234 245 265 259 254 263 257 244 257 251 248 270 255 261 378 357 337 340 334 321 320 317 318 305 306 313 320 310 317 320 326
262 278 254 253 261 240 256 254 247 230 244 247 241 243 228 239 234 248 234 232 235 246 245 247 246 240 260 259 254 250 260 247 261 259 257 258 294 367 343 320 331 315 335 308 322 307 303 303 306 304 301 305 303 302
266 272 256 250 251 243 260 263 243 244 232 250 235 243 247 234 242 245 240 232 228 232 239 245 241 247 245 243 252 253 253 255 262 259 250 264 294 361 335 334 323 324 301 316 322 317 295 290 300 295 293 289 285 298
270 260 257 253 246 272 268 267 257 249 232 242 246 241 229 231 235 232 232 232 234 233 240 235 247 264 255 251 250 248 248 258 257 248 257 272 374 357 336 318 309 310 319 316 304 296 292 302 295 290 284 290 285 286
273 265 259 257 244 259 270 264 258 252 240 245 238 241 255 231 230 230 236 239 245 250 244 245 251 259 248 247 243 243 254 256 245 247 257 283 372 349 321 316 302 304 302 294 290 290 298 297 274 280 272 282 282 284
275 275 263 254 248 249 265 280 260 251 248 245 248 241 240 241 235 255 234 240 230 234 241 248 241 254 247 239 244 248 253 250 243 250 264 290 378 358 331 309 306 311 299 292 273 295 292 282 284 281 278 266 270 272
272 274 264 256 253 249 255 282 288 277 258 249 248 261 247 248 242 245 248 238 240 252 259 258 247 252 246 251 254 249 254 243 248 255 281 413 394 326 324 311 293 306 272 292 278 283 295 271 272 271 273 282 283 271
270 271 265 257 254 246 249 252 259 281 291 280 268 258 254 248 245 243 239 246 256 263 259 257 255 255 253 253 253 256 241 244 253 267 285 438 353 349 326 307 297 316 272 277 268 276 272 283 282 264 273 280 283 277
271 279 272 258 254 252 246 247 250 253 260 297 293 293 292 296 286 275 274 280 268 260 248 250 242 247 252 256 264 236 243 246 261 274 281 406 326 344 322 310 294 284 293 273 272 275 285 285 283 278 263 282 279 286
280 280 274 266 260 251 249 247 242 243 248 288 279 277 277 277 278 278 274 260 248 253 254 248 251 253 241 252 235 238 244 255 263 279 286 354 313 337 326 285 298 293 286 301 269 273 274 258 272 295 284 275 282 285
277 279 282 269 260 257 250 243 245 241 244 252 276 275 278 277 273 266 257 253 254 255 258 255 255 253 254 239 240 248 252 260 278 274 284 375 359 328 273 311 300 291 287 281 286 277 273 292 279 265 272 281 285 276
284 277 278 283 267 259 258 249 244 250 244 245 255 268 268 268 267 259 253 251 253 256 260 256 252 240 240 242 247 252 257 269 273 276 329 350 363 299 267 299 303 286 285 282 278 295 272 269 269 286 283 281 281 272
294 281 278 268 287 267 254 260 251 246 249 247 242 237 237 249 245 257 255 261 260 250 244 240 244 240 246 242 250 259 268 268 271 281 341 349 353 312 322 312 301 288 296 269 269 280 281 280 287 277 281 286 282 277
304 294 285 276 261 283 268 260 254 251 243 238 241 240 240 240 237 237 239 240 241 243 245 236 241 246 250 251 261 268 277 268 277 376 331 327 349 346 328 315 292 302 278 283 255 259 270 275 284 286 278 281 283 282
311 300 294 287 276 259 274 274 261 256 251 249 247 247 243 241 244 243 244 244 243 238 239 245 252 251 251 257 274 273 264 283 386 357 326 319 335 327 348 308 300 282 276 275 281 276 270 265 277 285 282 286 277 282
312 309 303 297 280 273 268 268 275 264 258 253 247 248 245 246 246 246 244 242 244 251 254 253 249 258 269 274 254 276 288 382 364 329 320 308 331 338 338 352 297 294 279 270 277 275 284 275 270 280 280 277 283 270
349 313 308 306 290 282 277 276 278 278 273 266 261 257 254 254 254 255 256 254 249 177 252 259 266 286 263 270 276 299 373 369 335 321 310 323 330 323 333 340 293 275 282 293 282 281 265 264 282 269 281 276 276 299
358 331 315 309 304 289 283 284 283 273 271 274 272 266 258 264 263 264 265 264 245 263 273 282 269 268 271 284 359 366 364 346 324 311 298 311 315 275 310 298 287 281 286 290 279 264 276 272 282 271 270 290 289 271
373 352 332 315 304 302 294 287 289 271 260 260 252 258 265 267 233 267 271 284 271 267 268 266 272 281 325 366 364 360 349 321 306 293 288 299 304 289 290 290 285 284 276 264 278 265 265 276 209 210 283 265 264 274
365 371 360 334 319 310 304 296 289 281 280 283 241 279 277 271 271 211 273 272 271 270 273 283 307 369 359 360 349 338 316 292 306 298 290 285 290 302 275 286 287 286 285 280 273 166 126 127 129 133 273 272 277 284
355 350 364 371 360 331 319 308 300 292 286 285 283 282 281 277 278 269 280 280 283 296 372 378 367 357 349 318 312 306 288 293 290 306 301 295 286 291 298 265 272 273 273 275 295 126 276 284 270 188 268 285 278 310
375 362 364 368 370 373 364 376 329 314 308 304 300 297 227 296 300 303 331 373 354 349 357 352 328 308 305 285 287 293 294 304 330 331 324 278 251 291 276 275 275 282 279 278 275 269 213 274 280 299 303 298 292 289
404 400 362 360 308 362 357 357 277 365 372 371 368 368 373 370 379 360 343 336 358 337 305 301 298 294 296 296 298 304 312 320 331 337 327 316 286 276 271 268 264 269 275 283 286 288 288 287 284 280 278 282 282 281
405 402 359 346 345 344 347 318 358 217 169 356 359 365 333 326 323 337 351 313 298 291 291 293 317 336 345 316 304 289 281 271 274 271 269 268 268 271 273 272 272 271 272 270 271 277 287 291 293 295 299 300 299 298
351 351 352 353 351 350 349 345 345 342 323 314 322 322 352 343 326 298 291 286 284 288 284 294 289 286 279 274 274 275 254 252 269 269 266 264 265 271 275 276 280 296 307 311 312 310 314 321 326 336 346 353 357 357
314 308 314 316 314 310 307 307 307 322 347 349 339 320 301 294 286 283 280 286 281 275 273 290 288 278 260 253 265 271 265 266 266 261 260 256 264 267 272 273 334 349 354 353 349 347 349 351 354 357 358 363 365 368
328 313 311 321 339 345 357 373 336 314 302 291 288 285 284 281 275 288 283 288 290 285 275 263 252 268 271 267 265 262 258 257 261 262 269 271 275 276 282 291 358 352 348 349 352 358 365 376 420 456 461 456 452 454
331 329 328 330 312 296 290 294 297 292 289 288 281 286 288 290 287 283 283 273 263 250 248 274 274 265 263 259 259 259 256 270 266 264 270 266 274 277 290 303 361 350 350 355 366 427 431 416 409 407 406 405 405 407
291 286 288 284 282 289 291 292 290 290 286 286 283 281 278 276 268 266 260 255 268 276 271 263 260 254 261 262 254 261 262 262 268 269 271 266 275 286 291 307 362 353 355 367 416 473 467 458 454 460 453 443 432 392
280 289 289 288 287 285 280 281 279 282 281 278 276 266 260 259 262 262 275 278 272 264 261 256 262 263 264 255 251 260 257 261 264 274 272 276 281 289 295 313 364 355 360 367 445 424 411 399 423 436 429 436 443 440
283 277 279 279 278 275 278 274 269 265 265 269 267 270 269 270 286 280 275 264 260 259 255 254 253 252 257 261 258 269 259 267 257 276 270 275 283 289 297 318 364 355 359 370 431 405 391 382 437 428 427 425 422 417
309 299 303 287 307 296 295 289 301 299 293 292 336 308 294 282 278 269 251 256 254 253 251 252 252 257 253 260 253 263 265 258 266 274 271 276 288 291 299 324 362 356 359 423 421 397 382 404 397 393 392 400 399 397
320 332 339 345 344 343 341 340 336 331 322 303 290 279 260 261 261 257 256 254 252 253 258 255 254 254 258 263 261 266 263 257 268 273 277 280 294 294 303 326 358 356 357 367 417 396 380 390 426 420 416 411 406 401
Wind_Speed
76 71 66 59 53 48 50 51 46 47 47 41 43 35 44 42 38 41 38 36 35 35 37 41 46 39 43 44 46 45 43 48 47 49 56 49 54 14 13 14 9 11 5 4 6 2 3 1 4 7 5 8 8 6
75 76 65 60 60 48 60 62 54 43 47 50 48 49 32 41 36 46 35 35 38 46 42 40 40 41 42 41 43 44 45 44 49 51 47 50 53 12 14 16 9 10 3 5 2 8 8 9 7 9 8 6 3 3
75 77 65 59 58 53 63 66 55 54 42 50 43 51 54 41 45 49 48 37 36 39 38 40 40 41 41 41 43 42 44 45 48 46 45 53 49 11 13 8 10 6 8 5 8 16 13 12 11 12 10 9 8 3
79 71 66 63 57 61 65 67 67 59 48 53 52 49 40 39 39 36 38 41 41 42 44 40 49 46 40 40 40 39 42 44 45 43 50 54 14 13 11 10 8 8 7 14 14 9 10 12 15 10 8 7 5 5
81 77 71 67 58 59 65 65 64 62 53 59 51 50 55 42 40 39 43 48 55 55 48 45 45 39 39 39 37 39 43 43 39 43 50 50 18 16 16 7 10 9 16 14 10 11 12 13 5 7 5 6 6 9
81 79 72 65 60 57 56 66 63 60 57 57 64 57 50 49 47 59 46 50 37 42 48 50 43 42 40 35 38 40 41 39 40 44 51 46 18 21 17 12 11 20 20 15 8 16 14 11 10 11 7 9 8 8
79 79 73 67 62 56 53 51 56 67 65 60 58 65 60 60 55 59 60 51 52 59 53 48 45 44 40 42 41 38 39 37 40 45 47 17 22 17 18 15 13 27 9 18 11 13 19 7 10 11 9 9 10 14
78 79 74 68 62 57 53 49 47 49 55 63 66 66 65 59 62 55 48 58 63 53 46 45 44 42 41 42 41 40 36 38 43 48 42 10 14 19 20 17 14 24 13 13 10 11 9 14 15 9 12 16 15 15
78 79 79 69 64 60 55 51 47 42 39 45 46 48 48 47 45 48 50 44 44 44 44 43 37 38 39 41 42 33 37 41 46 46 41 8 17 20 20 20 16 16 30 16 15 14 19 19 14 11 16 14 14 17
78 78 78 74 67 60 56 51 45 41 40 39 40 41 40 40 39 40 40 42 43 45 45 40 40 38 30 36 34 35 40 47 47 44 42 18 20 19 22 15 20 20 21 33 15 13 15 15 15 25 17 19 19 17
75 75 79 76 68 62 58 52 51 46 43 40 39 41 39 38 38 39 39 40 41 41 41 38 36 36 38 34 36 40 44 48 49 41 42 12 23 23 16 24 20 20 20 18 19 19 20 24 24 17 18 20 21 19
80 75 74 79 72 64 62 59 53 52 46 41 37 38 36 35 37 36 36 39 40 40 37 33 33 32 34 37 40 43 46 50 47 43 30 16 24 21 20 22 23 21 22 20 19 18 18 20 21 25 25 22 22 21
81 78 75 67 76 70 63 64 56 49 47 43 38 35 34 32 29 33 37 41 38 33 29 29 32 34 37 38 44 47 49 46 46 48 23 22 28 20 29 27 24 24 24 22 20 21 22 26 27 24 24 25 26 25
82 81 76 71 62 74 73 63 58 55 49 43 42 41 37 33 34 37 36 35 34 33 31 30 35 39 40 43 49 51 47 45 48 22 25 24 24 32 31 30 26 26 23 24 24 24 24 26 29 28 26 27 27 28
83 83 77 72 70 62 70 73 64 58 53 50 47 43 38 38 38 38 37 36 35 34 35 39 43 42 42 47 54 48 42 52 20 24 23 24 23 26 28 30 28 24 21 22 26 28 26 21 26 30 28 30 28 30
82 83 80 73 68 70 65 63 69 64 58 53 44 43 41 41 41 40 39 38 40 43 45 44 42 47 53 51 41 49 54 22 20 23 24 22 21 21 25 28 27 28 25 27 30 28 31 27 24 31 28 30 32 29
80 81 78 75 70 69 67 66 67 67 63 57 55 52 49 48 49 49 49 46 44 18 45 48 54 51 45 50 50 54 24 19 23 23 19 21 19 21 19 17 25 23 25 30 31 29 24 25 27 27 31 31 31 36
72 80 80 77 76 70 69 67 63 56 55 59 58 56 51 53 52 53 53 53 42 52 55 50 43 45 52 54 29 25 20 23 24 19 22 23 23 18 24 24 24 27 29 30 28 27 26 28 32 31 33 37 35 33
66 72 77 77 74 77 72 63 58 46 49 52 46 47 50 52 37 49 50 50 47 43 41 43 51 55 42 25 25 20 19 17 16 18 21 24 25 21 23 25 26 27 25 27 27 30 33 34 21 23 37 33 35 37
60 61 66 74 77 75 69 64 60 57 57 57 37 49 49 46 45 22 41 40 41 41 49 56 55 23 25 20 15 15 14 15 16 21 24 22 23 29 19 25 28 30 31 31 32 16 11 12 12 14 38 39 41 44
58 59 60 61 65 68 64 65 65 63 61 59 56 55 53 51 50 42 46 46 50 54 23 22 22 16 11 11 11 12 13 13 16 21 26 27 24 25 29 23 25 27 30 34 41 16 40 42 40 28 42 48 47 44
54 53 50 46 43 41 46 42 60 65 65 64 62 59 25 56 54 51 42 22 24 26 22 13 9 13 12 13 11 9 10 16 20 23 26 26 21 23 23 27 30 32 34 37 39 40 32 46 48 50 48 46 44 44
45 45 36 35 27 35 34 35 25 36 34 33 33 32 30 28 24 20 24 24 21 16 15 13 11 11 9 7 6 8 10 10 11 11 14 18 21 25 28 31 34 37 41 44 45 47 48 49 49 48 48 49 48 46
37 34 34 36 36 37 35 27 32 15 8 28 26 23 23 24 25 24 25 21 20 17 13 10 9 6 4 3 2 3 5 9 11 14 16 19 23 27 30 33 37 41 44 46 48 51 54 56 57 58 60 60 60 59
36 36 36 34 32 30 30 29 28 27 27 28 26 26 29 29 25 27 26 22 18 14 12 11 10 8 6 4 4 4 11 15 12 15 18 23 27 33 37 41 45 52 56 59 62 63 66 69 71 73 71 69 67 66
30 32 30 31 31 30 30 30 29 27 24 29 33 31 29 30 28 24 20 19 17 15 13 13 12 8 7 10 8 6 10 13 16 20 25 29 34 40 46 49 56 55 56 57 58 61 63 65 66 66 65 64 63 63
26 27 28 28 28 27 24 24 32 32 32 33 32 31 28 25 21 21 21 20 19 17 14 12 12 8 5 6 8 11 15 19 23 27 31 35 39 45 52 58 49 48 50 52 56 59 60 61 53 45 42 42 42 41
33 34 34 35 34 33 34 34 34 35 34 32 29 27 26 25 25 23 22 19 16 13 11 9 7 5 5 9 12 16 21 23 26 30 34 38 44 50 58 63 49 48 49 52 54 55 49 46 45 43 42 41 40 39
28 29 30 30 28 29 29 29 29 28 28 28 28 27 26 24 20 18 16 15 13 12 9 6 5 8 9 12 17 20 24 28 32 34 38 40 48 55 59 65 52 51 52 54 57 44 40 37 35 32 31 32 33 36
18 21 24 25 27 28 27 27 26 26 27 27 25 21 19 17 17 15 16 16 13 8 6 5 8 11 14 18 21 24 26 30 35 40 42 49 54 59 63 68 56 55 56 57 49 44 40 38 35 32 31 29 28 28
22 21 22 22 23 22 25 24 22 20 19 20 20 20 19 17 21 18 16 12 8 5 6 8 11 15 19 21 24 27 29 34 35 43 45 51 59 62 65 70 60 58 57 58 47 42 40 38 32 31 30 29 29 28
17 23 24 25 27 28 29 28 27 27 26 26 23 28 26 21 19 14 11 8 7 7 10 13 16 20 23 25 27 30 33 34 40 46 48 54 61 63 66 73 63 60 59 54 45 43 41 37 35 34 32 31 30 30
9 14 14 15 14 16 19 20 21 22 26 30 27 23 16 15 14 12 9 10 11 13 16 18 21 23 27 30 31 34 35 36 43 49 53 58 63 64 68 74 66 62 61 61 45 43 42 39 32 31 30 29 29 29
Wind_Direction
210 212 212 216 217 219 224 219 223 223 222 230 227 232 222 233 236 240 242 247 252 258 260 266 275 278 276 282 284 287 291 295 298 301 306 310 315 295 299 310 311 288 287 256 243 230 226 205 70 76 142 115 114 102
210 205 212 214 215 222 226 222 221 226 235 228 230 232 232 235 241 246 242 246 256 263 264 272 274 271 280 281 283 289 292 296 300 303 308 314 324 293 300 303 302 310 242 266 325 204 191 187 133 139 156 128 138 236
209 205 214 214 217 222 221 223 220 223 227 231 230 233 238 240 247 249 254 253 256 262 272 278 276 280 278 281 286 290 296 298 302 306 311 317 328 273 295 277 287 251 288 213 147 154 214 223 185 174 179 184 217 298
207 210 212 213 217 220 219 220 223 224 227 236 238 233 233 236 240 244 250 256 259 263 277 274 282 280 276 282 286 292 297 303 306 311 317 319 279 267 265 277 295 266 179 166 165 185 206 183 178 203 221 190 217 268
207 209 210 211 217 219 220 223 223 225 225 235 235 239 242 238 245 249 255 262 267 273 274 276 276 273 277 281 287 293 300 303 305 311 318 323 276 253 278 244 270 238 190 209 206 212 176 179 248 235 281 267 265 271
208 208 209 211 215 218 223 223 225 225 226 230 237 241 242 247 247 256 254 261 252 263 274 275 269 272 275 280 288 293 299 302 306 314 317 325 257 229 234 241 234 197 211 218 281 216 217 230 232 246 258 247 273 293
207 208 209 210 212 217 218 220 222 225 231 231 235 238 246 249 250 254 259 260 265 273 270 269 269 270 278 283 288 293 298 301 309 314 315 281 221 262 236 224 233 206 248 221 251 250 232 280 255 259 259 265 271 275
206 208 209 210 210 216 217 218 220 223 226 232 239 241 244 245 250 252 253 261 266 264 261 264 267 273 279 284 290 294 297 303 310 314 322 223 258 219 217 225 222 211 244 238 248 259 255 260 269 253 269 275 276 275
204 206 208 210 210 212 216 218 220 222 226 225 227 229 230 229 233 241 249 243 245 248 256 261 268 273 279 286 291 291 299 304 312 314 322 259 297 218 220 221 220 231 219 242 246 257 262 270 277 272 246 271 269 272
204 205 207 209 211 212 215 218 219 220 224 218 219 223 224 225 226 229 230 234 245 250 255 262 269 276 278 286 288 294 302 306 309 315 324 294 294 225 221 264 220 221 231 232 248 261 264 247 268 280 275 259 272 276
206 206 206 210 212 212 213 217 219 220 222 225 220 219 218 217 218 223 229 238 245 251 256 262 271 279 282 285 290 299 302 306 310 310 321 271 224 233 269 226 226 221 227 235 240 253 257 264 266 265 269 273 275 277
206 209 208 208 212 214 213 216 218 219 220 223 223 221 223 222 222 229 237 243 248 253 259 266 272 277 282 287 294 297 304 306 306 311 309 249 228 247 262 240 226 228 229 236 241 251 253 261 268 262 265 273 275 279
207 209 209 209 209 213 216 217 217 219 222 224 224 225 227 230 231 234 241 245 251 259 263 267 276 277 287 287 295 300 303 301 303 311 287 256 246 252 236 232 226 233 228 244 250 244 253 262 264 272 274 273 275 281
206 211 210 209 208 213 216 219 219 220 221 223 226 228 230 232 235 239 245 249 255 264 269 266 276 283 288 291 297 297 299 298 303 253 262 266 239 242 237 229 231 231 240 241 261 266 268 274 273 273 279 281 282 285
205 210 213 209 210 213 216 217 221 224 225 228 230 231 232 234 240 245 251 258 263 264 271 277 281 284 289 295 293 294 295 302 270 242 255 259 249 246 239 232 228 238 253 254 254 262 272 277 283 280 283 286 284 288
205 209 214 213 209 215 218 218 221 223 225 229 232 235 238 243 247 252 256 259 264 272 274 277 279 287 292 290 289 295 300 280 247 243 250 258 252 249 248 240 234 232 247 257 260 267 270 275 281 283 289 285 289 285
201 208 213 214 216 216 218 220 222 225 227 229 234 238 241 245 249 253 257 262 264 232 273 279 284 286 285 289 291 297 279 258 238 245 253 249 243 241 243 242 239 251 250 245 261 271 275 276 290 282 287 284 287 295
200 204 210 212 214 219 222 223 221 222 229 233 236 239 242 246 249 254 258 262 263 271 274 278 280 287 284 289 273 271 262 237 238 241 246 243 241 269 234 237 245 255 257 261 268 270 285 282 286 280 282 293 292 284
197 202 206 211 215 218 222 227 228 220 222 228 229 235 239 244 240 252 255 259 262 269 276 281 282 283 280 253 260 266 245 237 244 238 248 254 249 256 261 257 263 267 273 271 276 274 277 281 282 286 289 282 282 288
194 197 203 208 213 219 221 224 229 232 237 240 231 242 244 244 248 233 258 267 272 276 278 277 282 241 256 260 256 240 229 234 244 240 252 263 263 256 272 272 274 277 280 280 278 290 303 304 305 297 285 286 292 293
190 196 200 205 209 217 221 222 225 230 236 239 241 244 248 251 254 257 264 268 271 272 242 227 234 250 243 225 233 230 235 247 256 259 254 260 270 273 270 270 278 279 281 282 285 295 285 286 286 288 288 291 291 291
186 195 199 200 202 204 212 213 223 227 230 234 238 242 218 250 255 260 262 239 230 235 233 229 217 208 211 219 231 248 270 277 276 263 252 254 269 280 277 279 281 284 285 287 287 285 282 288 289 289 288 288 288 288
178 186 185 185 183 187 189 197 194 208 209 211 216 220 221 228 223 215 212 222 204 191 183 188 193 201 215 229 250 267 276 285 291 270 265 271 287 292 294 294 295 295 294 292 292 291 290 289 289 288 287 286 285 284
167 171 156 163 171 175 184 183 189 178 176 196 201 203 185 188 200 198 188 171 173 175 173 181 195 184 150 169 245 274 281 283 289 290 293 293 296 297 296 296 294 293 292 293 292 291 290 289 288 287 286 285 284 283
144 154 155 159 162 162 164 166 171 168 154 165 172 178 167 173 168 161 168 168 170 168 170 169 163 163 179 211 255 283 277 281 297 303 298 299 301 304 307 306 304 305 300 297 294 293 291 290 289 288 288 289 288 288
135 138 139 138 143 146 149 154 159 164 166 160 161 160 154 158 166 167 164 163 171 179 189 167 155 166 218 252 257 274 278 301 310 307 306 302 309 310 311 310 313 303 300 297 295 293 292 292 291 291 290 289 288 287
142 144 147 151 151 154 154 153 150 148 148 151 156 162 163 162 164 164 170 167 162 167 177 199 229 206 209 246 284 298 302 307 314 316 319 317 320 319 319 320 316 310 306 304 301 299 299 298 301 303 299 297 293 291
133 137 140 143 141 143 147 150 152 157 160 162 163 158 160 162 166 167 166 171 184 209 227 187 184 227 270 293 308 314 315 319 317 319 322 319 324 324 328 329 326 321 317 313 312 318 313 309 306 303 301 298 297 296
142 145 147 152 157 156 156 156 157 158 162 163 167 170 172 174 177 180 188 201 201 184 191 214 253 285 308 312 317 317 318 319 325 323 326 319 327 330 330 332 333 329 327 328 328 324 321 319 317 314 310 305 301 298
161 160 162 165 164 165 168 171 176 177 177 178 179 181 187 195 195 199 189 187 190 203 228 272 304 309 305 310 311 312 313 318 323 329 328 331 333 332 333 336 338 336 336 335 330 328 326 323 322 320 317 315 312 309
187 190 192 190 187 187 187 190 187 187 192 196 198 200 201 205 188 188 188 197 211 234 276 304 314 310 306 305 310 316 314 322 315 330 330 332 334 332 334 338 341 339 339 339 333 332 330 327 327 325 323 321 318 315
200 206 208 210 206 205 206 209 205 201 203 201 187 182 184 186 189 196 219 227 250 273 289 299 302 303 305 308 310 317 318 316 326 331 330 331 333 332 335 339 342 341 341 338 337 337 335 335 332 330 328 325 322 319
182 222 226 221 210 201 200 197 192 186 181 177 180 184 189 196 206 220 237 254 270 282 289 294 298 301 305 308 311 316 317 319 327 331 330 330 333 332 335 340 343 341 342 343 339 338 337 337 334 333 333 331 330 328